| time (UTC) | temp F | wind direction | speed MPH | gust MPH | rain 1hr in | rain 24hr in | rain mn in | humidity % | barometer mb |
| 20260901235804 | 59 | 244 | 3.0 | 7.0 | 0.00 | 0.02 | 0.00 | 88 | 1020.3 |
| 20260901235307 | 59 | 236 | 3.0 | 8.0 | 0.00 | 0.02 | 0.00 | 88 | 1020.3 |
| 20260901233803 | 60 | 261 | 3.0 | 6.0 | 0.00 | 0.02 | 0.00 | 87 | 1020.2 |
| 20260901233304 | 60 | 245 | 2.0 | 3.0 | 0.00 | 0.02 | 0.00 | 87 | 1020.2 |
| 20260901232306 | 60 | 240 | 3.0 | 5.0 | 0.00 | 0.02 | 0.00 | 87 | 1020.2 |
| 20260901230303 | 59 | 253 | 4.0 | 9.0 | 0.00 | 0.02 | 0.00 | 87 | 1020.3 |
| 20260901224804 | 59 | 253 | 2.0 | 5.0 | 0.01 | 0.02 | 0.02 | 87 | 1020.3 |
| 20260901224304 | 59 | 253 | 3.0 | 5.0 | 0.01 | 0.02 | 0.02 | 87 | 1020.4 |
| 20260901223803 | 59 | 244 | 3.0 | 6.0 | 0.01 | 0.02 | 0.02 | 87 | 1020.4 |
| 20260901222803 | 59 | 245 | 2.0 | 5.0 | 0.01 | 0.02 | 0.02 | 88 | 1020.3 |
| 20260901222306 | 59 | 244 | 2.0 | 3.0 | 0.01 | 0.02 | 0.02 | 87 | 1020.4 |
| 20260901221804 | 59 | 244 | 2.0 | 5.0 | 0.01 | 0.02 | 0.02 | 87 | 1020.4 |
| 20260901220303 | 59 | 248 | 2.0 | 3.0 | 0.01 | 0.02 | 0.02 | 87 | 1020.6 |
| 20260901214806 | 59 | 238 | 2.0 | 3.0 | 0.00 | 0.01 | 0.01 | 87 | 1020.5 |
| 20260901212804 | 59 | 232 | 2.0 | 3.0 | 0.00 | 0.01 | 0.01 | 87 | 1020.5 |
| 20260901212306 | 59 | 233 | 1.0 | 5.0 | 0.00 | 0.01 | 0.01 | 87 | 1020.6 |
| 20260901211804 | 59 | 235 | 2.0 | 5.0 | 0.00 | 0.01 | 0.01 | 87 | 1020.6 |
| 20260901211304 | 59 | 228 | 2.0 | 3.0 | 0.00 | 0.01 | 0.01 | 87 | 1020.5 |
| 20260901210303 | 59 | 235 | 2.0 | 3.0 | 0.00 | 0.01 | 0.01 | 87 | 1020.6 |
| 20260901205803 | 59 | 236 | 2.0 | 3.0 | 0.00 | 0.01 | 0.01 | 87 | 1020.6 |
| 20260901205306 | 59 | 236 | 2.0 | 5.0 | 0.00 | 0.01 | 0.01 | 87 | 1020.6 |
| 20260901204804 | 59 | 236 | 2.0 | 3.0 | 0.00 | 0.02 | 0.01 | 87 | 1020.6 |
| 20260901203804 | 59 | 232 | 2.0 | 3.0 | 0.00 | 0.02 | 0.01 | 87 | 1020.5 |
| 20260901203303 | 59 | 230 | 2.0 | 5.0 | 0.00 | 0.02 | 0.01 | 86 | 1020.5 |
| 20260901201803 | 59 | 215 | 2.0 | 3.0 | 0.00 | 0.02 | 0.01 | 86 | 1020.6 |
| 20260901200304 | 60 | 215 | 0.0 | 1.0 | 0.00 | 0.02 | 0.01 | 84 | 1020.5 |
| 20260901195803 | 60 | 215 | 0.0 | 2.0 | 0.00 | 0.02 | 0.01 | 84 | 1020.5 |
| 20260901194804 | 60 | 215 | 0.0 | 3.0 | 0.00 | 0.02 | 0.01 | 84 | 1020.5 |
| 20260901193805 | 61 | 215 | 1.0 | 3.0 | 0.00 | 0.02 | 0.01 | 83 | 1020.5 |
| 20260901191805 | 61 | 203 | 1.0 | 3.0 | 0.00 | 0.02 | 0.01 | 82 | 1020.3 |
| 20260901185805 | 62 | 183 | 2.0 | 3.0 | 0.00 | 0.02 | 0.01 | 80 | 1020.1 |
| 20260901184805 | 62 | 212 | 2.0 | 3.0 | 0.00 | 0.02 | 0.01 | 80 | 1020.2 |
| 20260901183305 | 63 | 243 | 3.0 | 8.0 | 0.00 | 0.02 | 0.01 | 78 | 1020.1 |
| 20260901182805 | 63 | 213 | 4.0 | 12.0 | 0.00 | 0.02 | 0.01 | 78 | 1020.1 |
| 20260901181304 | 64 | 239 | 6.0 | 12.0 | 0.00 | 0.02 | 0.01 | 77 | 1020.0 |
| 20260901180305 | 65 | 204 | 3.0 | 8.0 | 0.00 | 0.02 | 0.01 | 76 | 1020.0 |
| 20260901175305 | 65 | 204 | 5.0 | 10.0 | 0.00 | 0.02 | 0.01 | 75 | 1019.9 |
| 20260901174805 | 65 | 212 | 2.0 | 12.0 | 0.00 | 0.02 | 0.01 | 75 | 1019.9 |
| 20260901172805 | 65 | 212 | 6.0 | 12.0 | 0.00 | 0.02 | 0.01 | 75 | 1019.9 |
| 20260901171805 | 65 | 223 | 4.0 | 9.0 | 0.00 | 0.02 | 0.01 | 74 | 1019.9 |
| 20260901170804 | 65 | 240 | 3.0 | 9.0 | 0.00 | 0.02 | 0.01 | 73 | 1019.8 |
| 20260901170305 | 66 | 199 | 5.0 | 12.0 | 0.00 | 0.02 | 0.01 | 72 | 1019.9 |
| 20260901165805 | 66 | 199 | 4.0 | 12.0 | 0.00 | 0.02 | 0.01 | 72 | 1019.9 |
| 20260901164805 | 66 | 214 | 5.0 | 12.0 | 0.00 | 0.02 | 0.01 | 73 | 1019.8 |
| 20260901164305 | 65 | 175 | 6.0 | 12.0 | 0.00 | 0.02 | 0.01 | 72 | 1019.7 |
| 20260901163805 | 66 | 221 | 6.0 | 15.0 | 0.00 | 0.02 | 0.01 | 72 | 1019.7 |
| 20260901163304 | 66 | 233 | 6.0 | 12.0 | 0.00 | 0.02 | 0.01 | 72 | 1019.8 |
| 20260901162805 | 66 | 238 | 6.0 | 17.0 | 0.00 | 0.02 | 0.01 | 71 | 1019.8 |
| 20260901160304 | 68 | 210 | 4.0 | 12.0 | 0.00 | 0.02 | 0.01 | 69 | 1020.1 |
| 20260901155805 | 68 | 229 | 7.0 | 12.0 | 0.00 | 0.02 | 0.01 | 68 | 1020.1 |
| 20260901152805 | 69 | 222 | 4.0 | 12.0 | 0.00 | 0.02 | 0.01 | 67 | 1020.1 |
| 20260901152306 | 68 | 202 | 5.0 | 12.0 | 0.00 | 0.02 | 0.01 | 67 | 1020.1 |
| 20260901151805 | 68 | 192 | 6.0 | 10.0 | 0.00 | 0.02 | 0.01 | 66 | 1020.1 |
| 20260901150804 | 68 | 172 | 5.0 | 12.0 | 0.00 | 0.02 | 0.01 | 67 | 1020.1 |
| 20260901144804 | 68 | 174 | 3.0 | 10.0 | 0.00 | 0.02 | 0.01 | 67 | 1020.1 |
| 20260901144304 | 68 | 210 | 6.0 | 14.0 | 0.00 | 0.02 | 0.01 | 65 | 1020.1 |
| 20260901143805 | 70 | 220 | 7.0 | 12.0 | 0.00 | 0.02 | 0.01 | 64 | 1020.1 |
| 20260901143305 | 70 | 185 | 7.0 | 13.0 | 0.00 | 0.02 | 0.01 | 64 | 1020.1 |
| 20260901142306 | 69 | 243 | 7.0 | 13.0 | 0.00 | 0.02 | 0.01 | 62 | 1020.1 |
| 20260901141804 | 70 | 216 | 5.0 | 9.0 | 0.00 | 0.02 | 0.01 | 61 | 1020.1 |
| 20260901140805 | 70 | 240 | 5.0 | 10.0 | 0.00 | 0.02 | 0.01 | 64 | 1020.2 |
| 20260901140305 | 69 | 223 | 5.0 | 12.0 | 0.00 | 0.02 | 0.01 | 63 | 1020.1 |
| 20260901134305 | 67 | 258 | 5.0 | 12.0 | 0.00 | 0.02 | 0.01 | 63 | 1020.4 |
| 20260901133804 | 67 | 235 | 5.0 | 13.0 | 0.00 | 0.02 | 0.01 | 64 | 1020.4 |
| 20260901131804 | 66 | 278 | 3.0 | 9.0 | 0.00 | 0.02 | 0.01 | 64 | 1020.5 |
| 20260901130305 | 67 | 272 | 5.0 | 9.0 | 0.00 | 0.02 | 0.01 | 64 | 1020.6 |
| 20260901125308 | 67 | 257 | 5.0 | 10.0 | 0.00 | 0.02 | 0.01 | 63 | 1020.6 |
| 20260901123305 | 67 | 248 | 7.0 | 10.0 | 0.00 | 0.02 | 0.01 | 64 | 1020.6 |
| 20260901122805 | 67 | 213 | 5.0 | 9.0 | 0.00 | 0.02 | 0.01 | 65 | 1020.6 |
| 20260901120805 | 67 | 234 | 3.0 | 7.0 | 0.00 | 0.02 | 0.01 | 65 | 1020.7 |
| 20260901120305 | 67 | 232 | 5.0 | 12.0 | 0.00 | 0.02 | 0.01 | 65 | 1020.6 |
| 20260901111305 | 66 | 258 | 6.0 | 12.0 | 0.00 | 0.02 | 0.01 | 66 | 1020.6 |
| 20260901110304 | 66 | 277 | 5.0 | 12.0 | 0.00 | 0.02 | 0.01 | 66 | 1020.7 |
| 20260901105805 | 66 | 232 | 5.0 | 7.0 | 0.00 | 0.02 | 0.01 | 66 | 1020.7 |
| 20260901105305 | 66 | 249 | 5.0 | 9.0 | 0.00 | 0.02 | 0.01 | 66 | 1020.8 |
| 20260901104304 | 65 | 254 | 6.0 | 12.0 | 0.00 | 0.02 | 0.01 | 66 | 1020.9 |
| 20260901103805 | 65 | 212 | 4.0 | 12.0 | 0.00 | 0.02 | 0.01 | 67 | 1020.9 |
| 20260901103305 | 65 | 195 | 2.0 | 8.0 | 0.00 | 0.02 | 0.01 | 68 | 1021.0 |
| 20260901102805 | 64 | 238 | 6.0 | 10.0 | 0.00 | 0.02 | 0.01 | 67 | 1021.0 |
| 20260901101304 | 64 | 194 | 5.0 | 10.0 | 0.00 | 0.02 | 0.01 | 69 | 1021.0 |
| 20260901095805 | 63 | 237 | 3.0 | 10.0 | 0.00 | 0.02 | 0.01 | 71 | 1021.2 |
| 20260901094805 | 63 | 211 | 3.0 | 7.0 | 0.00 | 0.02 | 0.01 | 73 | 1021.4 |
| 20260901094304 | 62 | 205 | 3.0 | 8.0 | 0.00 | 0.02 | 0.01 | 74 | 1021.5 |
| 20260901093305 | 62 | 217 | 5.0 | 10.0 | 0.00 | 0.02 | 0.01 | 74 | 1021.4 |
| 20260901092805 | 62 | 225 | 3.0 | 9.0 | 0.00 | 0.02 | 0.01 | 73 | 1021.4 |
| 20260901092305 | 62 | 204 | 3.0 | 9.0 | 0.00 | 0.02 | 0.01 | 74 | 1021.3 |
| 20260901090804 | 62 | 231 | 3.0 | 8.0 | 0.00 | 0.02 | 0.01 | 78 | 1021.2 |
| 20260901090304 | 61 | 216 | 3.0 | 6.0 | 0.00 | 0.02 | 0.01 | 79 | 1021.2 |
| 20260901085805 | 61 | 232 | 2.0 | 6.0 | 0.00 | 0.02 | 0.01 | 79 | 1021.2 |
| 20260901085306 | 60 | 243 | 2.0 | 3.0 | 0.00 | 0.02 | 0.01 | 79 | 1021.0 |
| 20260901084805 | 60 | 241 | 1.0 | 3.0 | 0.00 | 0.02 | 0.01 | 80 | 1021.0 |
| 20260901083305 | 59 | 250 | 2.0 | 8.0 | 0.00 | 0.02 | 0.01 | 80 | 1020.9 |
| 20260901082804 | 59 | 254 | 3.0 | 7.0 | 0.00 | 0.02 | 0.01 | 80 | 1020.9 |
| 20260901082306 | 59 | 238 | 1.0 | 3.0 | 0.00 | 0.02 | 0.01 | 81 | 1020.9 |
| 20260901081804 | 59 | 238 | 2.0 | 3.0 | 0.00 | 0.02 | 0.01 | 80 | 1020.9 |
| 20260901075307 | 58 | 294 | 2.0 | 6.0 | 0.00 | 0.02 | 0.01 | 81 | 1020.6 |
| 20260901074805 | 58 | 278 | 3.0 | 5.0 | 0.00 | 0.02 | 0.01 | 81 | 1020.6 |
| 20260901072804 | 58 | 268 | 3.0 | 6.0 | 0.00 | 0.02 | 0.01 | 81 | 1020.6 |
| 20260901072309 | 57 | 271 | 3.0 | 6.0 | 0.00 | 0.02 | 0.01 | 81 | 1020.6 |
| 20260901071805 | 57 | 263 | 1.0 | 6.0 | 0.00 | 0.02 | 0.01 | 82 | 1020.6 |
| 20260901065805 | 57 | 266 | 3.0 | 6.0 | 0.00 | 0.03 | 0.01 | 82 | 1020.5 |
| 20260901065305 | 57 | 269 | 3.0 | 6.0 | 0.00 | 0.03 | 0.01 | 82 | 1020.4 |
| 20260901064805 | 57 | 294 | 3.0 | 8.0 | 0.00 | 0.03 | 0.01 | 82 | 1020.4 |
| 20260901063305 | 57 | 287 | 2.0 | 5.0 | 0.00 | 0.03 | 0.01 | 82 | 1020.0 |
| 20260901062309 | 56 | 285 | 2.0 | 3.0 | 0.00 | 0.03 | 0.01 | 83 | 1020.0 |
| 20260901061805 | 56 | 288 | 2.0 | 3.0 | 0.00 | 0.03 | 0.01 | 83 | 1020.0 |
| 20260901061304 | 56 | 296 | 3.0 | 5.0 | 0.00 | 0.03 | 0.01 | 83 | 1019.9 |
| 20260901060308 | 56 | 285 | 3.0 | 7.0 | 0.00 | 0.03 | 0.01 | 84 | 1020.0 |
| 20260901055805 | 56 | 288 | 3.0 | 5.0 | 0.00 | 0.03 | 0.01 | 84 | 1020.0 |
| 20260901054304 | 55 | 298 | 3.0 | 7.0 | 0.01 | 0.03 | 0.01 | 84 | 1019.7 |
| 20260901053804 | 55 | 296 | 4.0 | 6.0 | 0.01 | 0.03 | 0.01 | 85 | 1019.7 |
| 20260901053304 | 55 | 288 | 3.0 | 5.0 | 0.01 | 0.03 | 0.01 | 85 | 1019.6 |
| 20260901052804 | 55 | 297 | 3.0 | 6.0 | 0.01 | 0.03 | 0.01 | 85 | 1019.6 |
| 20260901052307 | 55 | 290 | 3.0 | 5.0 | 0.01 | 0.03 | 0.01 | 85 | 1019.7 |
| 20260901050804 | 55 | 295 | 3.0 | 7.0 | 0.01 | 0.03 | 0.01 | 85 | 1019.7 |
| 20260901050304 | 55 | 293 | 3.0 | 7.0 | 0.01 | 0.03 | 0.01 | 85 | 1019.6 |
| 20260901045804 | 55 | 291 | 2.0 | 5.0 | 0.01 | 0.03 | 0.01 | 85 | 1019.6 |
| 20260901045306 | 55 | 286 | 3.0 | 7.0 | 0.01 | 0.03 | 0.01 | 85 | 1019.5 |
| 20260901044305 | 55 | 296 | 5.0 | 7.0 | 0.00 | 0.02 | 0.00 | 85 | 1019.5 |
| 20260901043804 | 55 | 294 | 4.0 | 8.0 | 0.00 | 0.02 | 0.00 | 85 | 1019.5 |
| 20260901043305 | 55 | 292 | 3.0 | 7.0 | 0.00 | 0.02 | 0.00 | 86 | 1019.4 |
| 20260901042805 | 55 | 292 | 3.0 | 7.0 | 0.00 | 0.02 | 0.00 | 86 | 1019.4 |
| 20260901034304 | 55 | 295 | 4.0 | 7.0 | 0.00 | 0.02 | 0.00 | 86 | 1019.3 |
| 20260901032804 | 55 | 275 | 3.0 | 7.0 | 0.00 | 0.02 | 0.00 | 86 | 1019.2 |
| 20260901031805 | 55 | 288 | 2.0 | 6.0 | 0.00 | 0.02 | 0.00 | 85 | 1019.2 |
| 20260901031305 | 56 | 289 | 3.0 | 8.0 | 0.00 | 0.02 | 0.00 | 85 | 1019.3 |
| 20260901030805 | 56 | 287 | 3.0 | 5.0 | 0.00 | 0.02 | 0.00 | 85 | 1019.3 |
| 20260901025306 | 56 | 282 | 3.0 | 8.0 | 0.00 | 0.02 | 0.00 | 84 | 1019.2 |
| 20260901024305 | 56 | 276 | 3.0 | 7.0 | 0.00 | 0.02 | 0.00 | 84 | 1019.1 |
| 20260901023804 | 56 | 292 | 4.0 | 8.0 | 0.00 | 0.02 | 0.00 | 84 | 1019.1 |
| 20260901022805 | 56 | 300 | 5.0 | 8.0 | 0.00 | 0.02 | 0.00 | 84 | 1019.1 |
| 20260901022306 | 56 | 289 | 4.0 | 8.0 | 0.00 | 0.02 | 0.00 | 84 | 1019.2 |
| 20260901021804 | 56 | 286 | 5.0 | 8.0 | 0.00 | 0.02 | 0.00 | 84 | 1019.2 |
| 20260901020304 | 57 | 296 | 5.0 | 8.0 | 0.00 | 0.02 | 0.00 | 84 | 1019.3 |
| 20260901015804 | 57 | 303 | 6.0 | 9.0 | 0.00 | 0.02 | 0.00 | 84 | 1019.3 |
| 20260901012804 | 57 | 289 | 5.0 | 12.0 | 0.00 | 0.02 | 0.00 | 83 | 1019.0 |
| 20260901011805 | 57 | 297 | 5.0 | 9.0 | 0.00 | 0.02 | 0.00 | 83 | 1018.8 |
| 20260901011305 | 58 | 287 | 5.0 | 8.0 | 0.00 | 0.02 | 0.00 | 83 | 1018.9 |
| 20260901010805 | 58 | 289 | 6.0 | 9.0 | 0.00 | 0.02 | 0.00 | 83 | 1018.9 |
| 20260901010304 | 58 | 282 | 5.0 | 10.0 | 0.00 | 0.02 | 0.00 | 83 | 1018.9 |
| 20260901005804 | 58 | 281 | 4.0 | 8.0 | 0.00 | 0.02 | 0.00 | 83 | 1018.9 |
| 20260901004805 | 58 | 291 | 4.0 | 9.0 | 0.00 | 0.02 | 0.00 | 83 | 1018.7 |
| 20260901004305 | 58 | 292 | 5.0 | 9.0 | 0.00 | 0.02 | 0.00 | 83 | 1018.8 |
| 20260901003804 | 58 | 288 | 5.0 | 9.0 | 0.00 | 0.02 | 0.00 | 83 | 1018.8 |
| 20260901002305 | 58 | 287 | 5.0 | 12.0 | 0.00 | 0.02 | 0.00 | 83 | 1018.5 |
| 20260901000805 | 58 | 281 | 3.0 | 7.0 | 0.00 | 0.02 | 0.00 | 82 | 1018.6 |